CW2433 Weather Reports


Display with metric or nautical units.
time (UTC)temp
F
wind
direction
speed
MPH
gust
MPH
rain 1hr
in
rain 24hr
in
rain mn
in
humidity
%
barometer
mb
20180623061510 62 80 0.0 0.0 0.00 0.00 0.00 92 1010.2
20180623061011 62 79 0.0 0.0 0.00 0.00 0.00 92 1010.2
20180623060510 63 79 0.0 0.0 0.00 0.00 0.00 92 1010.3
20180623060010 63 79 0.0 0.0 0.00 0.00 0.00 92 1010.4
20180623055509 63 79 0.0 0.0 0.00 0.00 0.00 92 1010.5
20180623055010 63 79 0.0 0.0 0.00 0.00 0.00 92 1010.6
20180623054510 63 79 0.0 0.0 0.00 0.00 0.00 91 1010.7
20180623054010 63 79 0.0 0.0 0.00 0.00 0.00 91 1010.7
20180623053510 63 79 0.0 0.0 0.00 0.00 0.00 91 1010.7
20180623053011 63 79 0.0 1.0 0.00 0.00 0.00 91 1010.7
20180623052510 64 79 0.0 3.0 0.00 0.00 0.00 91 1010.7
20180623052010 63 80 1.0 3.0 0.00 0.00 0.00 91 1010.7
20180623051510 63 74 0.0 2.0 0.00 0.00 0.00 91 1010.8
20180623051011 63 74 0.0 0.0 0.00 0.00 0.00 91 1010.9
20180623050510 63 74 0.0 0.0 0.00 0.00 0.00 91 1011.0
20180623050010 63 74 0.0 0.0 0.00 0.00 0.00 90 1010.9
20180623045515 63 74 0.0 0.0 0.00 0.00 0.00 90 1010.9
20180623045011 64 74 0.0 0.0 0.00 0.00 0.00 90 1011.0
20180623044510 64 74 0.0 0.0 0.00 0.00 0.00 89 1011.0
20180623044010 64 74 0.0 0.0 0.00 0.00 0.00 89 1011.1
20180623043510 64 74 0.0 0.0 0.00 0.00 0.00 88 1011.0
20180623043010 64 74 0.0 0.0 0.00 0.00 0.00 88 1011.1
20180623042510 64 74 0.0 0.0 0.00 0.00 0.00 87 1011.2
20180623042011 64 74 0.0 0.0 0.00 0.00 0.00 87 1011.2
20180623041509 65 74 0.0 0.0 0.00 0.00 0.00 87 1011.2
20180623041010 65 74 0.0 0.0 0.00 0.00 0.00 86 1011.2
20180623040509 65 74 0.0 0.0 0.00 0.00 0.00 85 1011.2
20180623040009 65 74 0.0 0.0 0.00 0.00 0.00 85 1011.2
20180623035509 65 74 0.0 0.0 0.00 0.00 0.00 85 1011.0
20180623035010 65 74 0.0 0.0 0.00 0.00 0.00 84 1011.0
20180623034509 65 74 0.0 0.0 0.00 0.00 0.00 84 1010.9
20180623034010 65 74 0.0 0.0 0.00 0.00 0.00 84 1011.0
20180623033509 65 74 0.0 0.0 0.00 0.00 0.00 84 1010.9
20180623033010 65 74 0.0 0.0 0.00 0.00 0.00 84 1010.9
20180623032509 65 74 0.0 0.0 0.00 0.00 0.00 83 1010.8
20180623032010 66 74 0.0 0.0 0.00 0.00 0.00 83 1010.8
20180623031509 66 74 0.0 0.0 0.00 0.00 0.00 82 1010.7
20180623031009 66 74 0.0 0.0 0.00 0.00 0.00 82 1010.6
20180623030509 66 74 0.0 0.0 0.00 0.00 0.00 81 1010.3
20180623030010 66 74 0.0 0.0 0.00 0.00 0.00 81 1010.0
20180623025509 67 74 0.0 0.0 0.00 0.00 0.00 80 1009.8
20180623025010 67 74 0.0 0.0 0.00 0.00 0.00 80 1009.5
20180623024510 67 74 0.0 0.0 0.00 0.00 0.00 79 1009.4
20180623024010 67 74 0.0 0.0 0.00 0.00 0.00 79 1009.6
20180623023509 67 74 0.0 0.0 0.00 0.00 0.00 78 1009.6
20180623023011 68 74 0.0 0.0 0.00 0.00 0.00 77 1009.6
20180623022509 68 74 0.0 0.0 0.00 0.00 0.00 75 1009.7
20180623022009 69 74 0.0 1.0 0.00 0.00 0.00 74 1009.6
20180623021510 69 74 0.0 1.0 0.00 0.00 0.00 73 1009.5
20180623021011 70 74 0.0 1.0 0.00 0.00 0.00 72 1009.4
20180623020509 70 74 0.0 3.0 0.00 0.00 0.00 70 1009.4
20180623020010 71 74 0.0 5.0 0.00 0.00 0.00 69 1009.3
20180623015510 71 71 0.0 5.0 0.00 0.00 0.00 67 1009.3
20180623015010 71 72 2.0 5.0 0.00 0.00 0.00 66 1009.4
20180623014510 71 89 0.0 2.0 0.00 0.00 0.00 66 1009.6
20180623014010 72 89 0.0 3.0 0.00 0.00 0.00 65 1009.7
20180623013509 72 81 1.0 3.0 0.00 0.00 0.00 64 1009.9
20180623013011 72 88 1.0 3.0 0.00 0.00 0.00 64 1010.1
20180623012509 72 88 0.0 3.0 0.00 0.00 0.00 65 1010.1
20180623012011 72 95 1.0 2.0 0.00 0.00 0.00 66 1010.2
20180623011510 72 104 0.0 2.0 0.00 0.00 0.00 67 1010.2
20180623011011 72 116 0.0 0.0 0.00 0.00 0.00 68 1010.4
20180623010510 71 116 0.0 0.0 0.00 0.00 0.00 68 1010.5
20180623010010 71 116 0.0 0.0 0.00 0.00 0.00 68 1010.6
20180623005510 71 116 0.0 0.0 0.00 0.00 0.00 68 1010.5
20180623005011 71 116 0.0 0.0 0.00 0.00 0.00 68 1010.7
20180623004510 72 116 0.0 0.0 0.00 0.00 0.00 70 1010.7
20180623004011 72 116 0.0 1.0 0.00 0.00 0.00 70 1010.6
20180623003510 72 116 0.0 1.0 0.00 0.00 0.00 67 1010.6
20180623003010 72 80 0.0 2.0 0.00 0.00 0.00 66 1010.5
20180623002510 73 76 1.0 3.0 0.00 0.00 0.00 65 1010.3
20180623002010 73 68 0.0 3.0 0.00 0.00 0.00 66 1010.2
20180623001510 73 90 1.0 3.0 0.00 0.00 0.00 65 1010.1
20180623001011 73 80 0.0 2.0 0.00 0.00 0.00 65 1010.2
20180623000510 73 80 0.0 2.0 0.00 0.00 0.00 64 1010.1
20180623000010 73 79 0.0 2.0 0.00 0.00 0.00 64 1010.1
20180622235510 74 55 1.0 3.0 0.00 0.00 0.00 64 1010.1
20180622235010 74 71 0.0 3.0 0.00 0.00 0.00 64 1010.1
20180622234510 74 61 1.0 3.0 0.00 0.00 0.00 62 1010.1
20180622234011 74 65 2.0 3.0 0.00 0.00 0.00 62 1010.1
20180622233510 74 29 2.0 3.0 0.00 0.00 0.00 61 1010.2
20180622233010 74 38 1.0 3.0 0.00 0.00 0.00 62 1010.2
20180622232510 73 85 1.0 3.0 0.00 0.00 0.00 61 1010.2
20180622232010 73 82 0.0 2.0 0.00 0.00 0.00 62 1010.2
20180622231510 73 77 0.0 1.0 0.00 0.00 0.00 62 1010.2
20180622231010 73 81 0.0 1.0 0.00 0.00 0.00 61 1010.2
20180622230509 73 74 0.0 1.0 0.00 0.00 0.00 64 1010.3
20180622230009 73 71 0.0 3.0 0.00 0.00 0.00 63 1010.3
20180622225509 74 71 0.0 3.0 0.00 0.00 0.00 60 1010.4
20180622225010 74 71 1.0 3.0 0.00 0.00 0.00 61 1010.4
20180622224512 74 159 1.0 3.0 0.00 0.00 0.00 60 1010.4
20180622224009 74 136 1.0 6.0 0.00 0.00 0.00 59 1010.5
20180622223509 75 167 1.0 6.0 0.00 0.00 0.00 59 1010.5
20180622223011 75 24 2.0 6.0 0.00 0.00 0.00 58 1010.6
20180622222509 74 56 1.0 6.0 0.00 0.00 0.00 59 1010.6
20180622222010 74 21 1.0 3.0 0.00 0.00 0.00 58 1010.8
20180622221509 74 80 1.0 3.0 0.00 0.00 0.00 58 1011.1
20180622221009 74 38 1.0 3.0 0.00 0.00 0.00 59 1011.1
20180622220509 74 136 1.0 2.0 0.00 0.00 0.00 60 1011.1
20180622220010 74 140 0.0 2.0 0.00 0.00 0.00 58 1011.1
20180622215509 74 123 1.0 3.0 0.00 0.00 0.00 58 1011.2
20180622215010 74 94 0.0 3.0 0.00 0.00 0.00 60 1011.2
20180622214510 74 135 1.0 5.0 0.00 0.00 0.00 57 1011.3
20180622214010 74 171 1.0 5.0 0.00 0.00 0.00 58 1011.5
20180622213509 74 171 2.0 5.0 0.00 0.00 0.00 58 1011.6
20180622213010 75 162 1.0 3.0 0.00 0.00 0.00 58 1011.5
20180622212509 74 55 1.0 6.0 0.00 0.00 0.00 58 1011.5
20180622212010 74 58 2.0 6.0 0.00 0.00 0.00 57 1011.5
20180622211510 74 136 0.0 5.0 0.00 0.00 0.00 57 1011.5
20180622211010 74 71 1.0 6.0 0.00 0.00 0.00 59 1011.5
20180622210509 74 65 1.0 6.0 0.00 0.00 0.00 56 1011.6
20180622210010 74 50 2.0 6.0 0.00 0.00 0.00 56 1011.6
20180622205509 74 69 1.0 6.0 0.00 0.00 0.00 58 1011.6
20180622205010 74 84 1.0 6.0 0.00 0.00 0.00 58 1011.6
20180622204510 74 73 2.0 6.0 0.00 0.00 0.00 59 1011.7
20180622204010 73 36 2.0 5.0 0.00 0.00 0.00 60 1011.6
20180622203510 73 63 2.0 9.0 0.00 0.00 0.00 63 1011.6
20180622203011 73 62 2.0 9.0 0.00 0.00 0.00 63 1011.7
20180622202509 73 62 1.0 5.0 0.00 0.00 0.00 62 1011.7
20180622202010 73 144 0.0 3.0 0.00 0.00 0.00 63 1011.7
20180622201510 73 80 1.0 9.0 0.00 0.00 0.00 64 1011.7
20180622201009 72 65 1.0 9.0 0.00 0.00 0.00 65 1011.8
20180622200510 72 68 2.0 9.0 0.00 0.00 0.00 65 1011.8
20180622200010 71 50 2.0 7.0 0.00 0.00 0.00 66 1011.9
20180622195509 71 77 2.0 7.0 0.00 0.00 0.00 67 1012.1
20180622195011 72 75 2.0 7.0 0.00 0.00 0.00 67 1012.2
20180622194510 72 50 2.0 8.0 0.00 0.00 0.00 69 1012.2
20180622194010 71 34 4.0 8.0 0.00 0.00 0.00 67 1012.3
20180622193510 71 81 1.0 7.0 0.00 0.00 0.00 69 1012.4
20180622193011 71 136 2.0 7.0 0.00 0.00 0.00 68 1012.5
20180622192510 70 44 2.0 10.0 0.00 0.00 0.00 69 1012.8
20180622192011 70 53 3.0 10.0 0.00 0.00 0.00 70 1012.8
20180622191510 70 4 3.0 10.0 0.00 0.00 0.00 70 1012.8
20180622191011 71 16 4.0 7.0 0.00 0.00 0.00 70 1012.8
20180622190510 70 30 2.0 9.0 0.00 0.00 0.00 72 1012.9
20180622190010 70 30 3.0 9.0 0.00 0.00 0.00 71 1012.9
20180622185510 70 34 2.0 6.0 0.00 0.00 0.00 72 1013.0
20180622185011 69 5 5.0 7.0 0.00 0.00 0.00 72 1013.0
20180622184510 70 35 2.0 7.0 0.00 0.00 0.00 73 1012.9
20180622184011 69 67 2.0 7.0 0.00 0.00 0.00 73 1013.1
20180622183510 69 77 3.0 6.0 0.00 0.00 0.00 72 1013.3
20180622183011 69 5 3.0 8.0 0.00 0.00 0.00 73 1013.3
20180622182510 68 26 3.0 8.0 0.00 0.00 0.00 74 1013.4
20180622182010 68 341 3.0 7.0 0.00 0.00 0.00 77 1013.4
20180622181509 67 28 4.0 10.0 0.00 0.00 0.00 78 1013.5
20180622181010 67 22 5.0 10.0 0.00 0.00 0.00 78 1013.5
20180622180509 67 2 5.0 9.0 0.00 0.00 0.00 77 1013.5
20180622180009 67 2 3.0 9.0 0.00 0.00 0.00 78 1013.5
20180622175509 67 19 3.0 9.0 0.00 0.00 0.00 77 1013.5
20180622175010 67 32 1.0 6.0 0.00 0.00 0.00 78 1013.5
20180622174510 67 70 3.0 6.0 0.00 0.00 0.00 79 1013.5
20180622174010 67 9 3.0 6.0 0.00 0.00 0.00 79 1013.5
20180622173509 67 50 2.0 10.0 0.00 0.00 0.00 79 1013.5
20180622173011 67 29 3.0 10.0 0.00 0.00 0.00 79 1013.4
20180622172509 67 27 3.0 7.0 0.00 0.00 0.00 80 1013.4
20180622172010 66 18 2.0 7.0 0.00 0.00 0.00 81 1013.5
20180622171510 66 18 4.0 7.0 0.00 0.00 0.00 82 1013.5
20180622171010 66 355 1.0 9.0 0.00 0.00 0.00 82 1013.5
20180622170509 66 9 3.0 12.0 0.00 0.00 0.00 83 1013.5
20180622170010 65 23 3.0 12.0 0.00 0.00 0.00 85 1013.5
20180622165509 65 31 3.0 10.0 0.00 0.00 0.00 85 1013.5
20180622165009 65 23 3.0 7.0 0.00 0.00 0.00 87 1013.6
20180622164510 64 343 2.0 6.0 0.00 0.00 0.00 88 1013.7
20180622164010 64 28 2.0 8.0 0.00 0.00 0.00 88 1013.7
20180622163509 64 9 3.0 12.0 0.00 0.00 0.00 86 1013.9
20180622163011 64 23 5.0 12.0 0.00 0.00 0.00 85 1014.0
20180622162509 64 23 5.0 9.0 0.00 0.00 0.00 85 1014.0
20180622162010 64 0 4.0 9.0 0.00 0.00 0.00 85 1014.0
20180622161510 64 31 3.0 10.0 0.00 0.00 0.00 84 1013.9
20180622161010 64 41 2.0 10.0 0.00 0.00 0.00 85 1014.0
20180622160509 64 22 2.0 12.0 0.00 0.00 0.00 86 1014.0
20180622160010 63 3 6.0 12.0 0.00 0.00 0.00 86 1014.0
20180622155510 63 21 3.0 10.0 0.00 0.00 0.00 87 1014.0
20180622155009 63 10 3.0 12.0 0.00 0.00 0.00 88 1014.0
20180622154510 63 26 2.0 12.0 0.00 0.00 0.00 88 1014.0
20180622154010 62 5 2.0 9.0 0.00 0.00 0.00 87 1014.0
20180622153509 62 337 5.0 9.0 0.00 0.00 0.00 87 1014.1
20180622153011 63 5 1.0 7.0 0.00 0.00 0.00 87 1014.1
20180622152510 63 25 3.0 8.0 0.00 0.00 0.00 87 1014.0
20180622152011 62 9 3.0 14.0 0.00 0.00 0.00 88 1014.0
20180622151510 62 4 6.0 14.0 0.00 0.00 0.00 87 1013.9
20180622151010 62 22 5.0 10.0 0.00 0.00 0.00 87 1013.9
20180622150510 62 17 3.0 9.0 0.00 0.00 0.00 87 1014.0
20180622150010 62 350 5.0 9.0 0.00 0.00 0.00 87 1014.1
20180622145510 62 351 2.0 10.0 0.00 0.00 0.00 87 1014.1
20180622145010 62 9 5.0 10.0 0.00 0.00 0.00 87 1014.1
20180622144510 62 5 1.0 12.0 0.00 0.00 0.00 87 1014.1
20180622144011 62 0 5.0 12.0 0.00 0.00 0.00 87 1014.1
20180622143510 62 355 2.0 9.0 0.00 0.00 0.00 88 1014.1
20180622143011 62 0 1.0 7.0 0.00 0.00 0.00 88 1014.1
20180622142510 62 14 3.0 7.0 0.00 0.00 0.00 88 1014.0
20180622142011 62 339 3.0 7.0 0.00 0.00 0.00 88 1014.0
20180622141510 62 339 3.0 7.0 0.00 0.00 0.00 88 1013.9
20180622141011 62 30 2.0 7.0 0.00 0.00 0.00 88 1013.9
20180622140510 62 12 3.0 6.0 0.00 0.00 0.00 88 1013.8
20180622140010 61 316 1.0 5.0 0.00 0.00 0.00 88 1013.8
20180622135510 61 39 1.0 3.0 0.00 0.00 0.00 88 1013.8
20180622135011 61 348 1.0 3.0 0.00 0.00 0.00 88 1013.8
20180622134510 61 345 1.0 5.0 0.00 0.00 0.00 87 1013.7
20180622134011 61 333 1.0 7.0 0.00 0.00 0.00 87 1013.6
20180622133510 61 12 3.0 7.0 0.00 0.00 0.00 87 1013.6
20180622133010 61 355 1.0 5.0 0.00 0.00 0.00 87 1013.5
20180622132510 61 309 2.0 5.0 0.00 0.00 0.00 87 1013.5
20180622132011 61 351 0.0 5.0 0.00 0.00 0.00 87 1013.5
20180622131509 61 347 2.0 10.0 0.00 0.00 0.00 87 1013.5
20180622131010 61 344 4.0 10.0 0.00 0.00 0.00 87 1013.5
20180622130509 61 32 2.0 5.0 0.00 0.00 0.00 87 1013.4
20180622130009 61 13 2.0 6.0 0.00 0.00 0.00 86 1013.4
20180622125509 61 37 1.0 7.0 0.00 0.00 0.00 86 1013.3
20180622125009 61 41 4.0 7.0 0.00 0.00 0.00 86 1013.2
20180622124510 61 20 5.0 7.0 0.00 0.00 0.00 85 1013.2
20180622124010 61 33 3.0 7.0 0.00 0.00 0.00 85 1013.1
20180622123509 61 9 3.0 9.0 0.00 0.00 0.00 85 1013.0
20180622123011 61 42 4.0 9.0 0.00 0.00 0.00 85 1013.1
20180622122509 61 36 3.0 10.0 0.00 0.00 0.00 85 1013.0
20180622122009 61 355 2.0 10.0 0.00 0.01 0.00 84 1013.0
20180622121509 61 354 3.0 7.0 0.00 0.01 0.00 84 1013.1
20180622121010 61 43 3.0 7.0 0.00 0.01 0.00 84 1013.2
20180622120509 61 346 1.0 7.0 0.00 0.01 0.00 84 1013.1
20180622120010 61 20 3.0 10.0 0.00 0.01 0.00 84 1012.9
20180622115509 61 27 4.0 12.0 0.00 0.01 0.00 83 1012.8
20180622115009 61 355 3.0 12.0 0.00 0.01 0.00 83 1012.8
20180622114510 61 26 2.0 13.0 0.00 0.01 0.00 83 1012.7
20180622114010 61 341 7.0 13.0 0.00 0.01 0.00 83 1012.6
20180622113509 61 9 3.0 13.0 0.00 0.01 0.00 83 1012.5
20180622113010 61 339 6.0 12.0 0.00 0.01 0.00 83 1012.5
20180622112509 61 39 2.0 12.0 0.00 0.01 0.00 83 1012.4
20180622112009 62 13 5.0 12.0 0.00 0.01 0.00 83 1012.3
20180622111510 62 10 7.0 12.0 0.00 0.01 0.00 82 1012.3
20180622111009 62 355 5.0 12.0 0.00 0.01 0.00 83 1012.3
20180622110509 62 5 6.0 12.0 0.00 0.01 0.00 84 1012.3
20180622110010 62 12 6.0 12.0 0.00 0.01 0.00 85 1012.2
20180622105509 63 345 3.0 7.0 0.00 0.01 0.00 86 1012.2
20180622105009 63 9 1.0 7.0 0.00 0.01 0.00 86 1012.2
20180622104510 63 15 1.0 7.0 0.00 0.01 0.00 86 1012.1
20180622104010 63 22 1.0 7.0 0.00 0.01 0.00 86 1012.1
20180622103510 63 13 1.0 7.0 0.00 0.01 0.00 86 1012.1
20180622103010 63 5 3.0 7.0 0.00 0.01 0.00 86 1011.8
20180622102510 63 30 3.0 10.0 0.00 0.01 0.00 86 1011.8
20180622102009 63 13 4.0 10.0 0.00 0.01 0.00 85 1011.9
20180622101510 63 22 2.0 10.0 0.00 0.01 0.00 85 1011.8
20180622101010 63 344 3.0 10.0 0.00 0.01 0.00 85 1012.0
20180622100510 63 312 2.0 8.0 0.00 0.01 0.00 85 1012.0
20180622100010 63 19 1.0 8.0 0.00 0.01 0.00 85 1012.1
20180622095510 63 25 1.0 9.0 0.00 0.01 0.00 85 1012.2
20180622095010 63 355 3.0 9.0 0.00 0.01 0.00 85 1012.2
20180622094510 63 9 2.0 9.0 0.00 0.01 0.00 85 1012.2
20180622094011 63 341 2.0 6.0 0.00 0.01 0.00 85 1012.2
20180622093510 63 5 1.0 5.0 0.00 0.01 0.00 84 1012.2
20180622093011 63 328 1.0 3.0 0.00 0.01 0.00 84 1012.2
20180622092510 63 5 1.0 6.0 0.00 0.01 0.00 84 1012.2
20180622092011 62 336 1.0 9.0 0.00 0.01 0.00 84 1012.3
20180622091511 62 16 3.0 9.0 0.00 0.01 0.00 83 1012.3
20180622091010 62 9 3.0 7.0 0.00 0.01 0.00 83 1012.3
20180622090510 63 22 1.0 7.0 0.00 0.01 0.00 83 1012.4
20180622090010 63 355 2.0 5.0 0.00 0.01 0.00 82 1012.7
20180622085510 63 0 1.0 5.0 0.00 0.01 0.00 82 1012.7
20180622085010 63 337 2.0 5.0 0.00 0.01 0.00 82 1012.8
20180622084512 63 287 0.0 5.0 0.00 0.01 0.00 82 1012.8
20180622084010 63 341 2.0 5.0 0.00 0.01 0.00 81 1012.8
20180622083510 63 329 2.0 5.0 0.00 0.01 0.00 81 1012.7
20180622083010 63 0 1.0 8.0 0.00 0.01 0.00 80 1012.7
20180622082510 63 353 3.0 8.0 0.00 0.01 0.00 80 1012.8
20180622082010 63 352 3.0 8.0 0.00 0.01 0.00 79 1012.7
20180622081510 63 0 2.0 6.0 0.00 0.01 0.00 79 1012.7
20180622081011 63 355 0.0 5.0 0.00 0.01 0.00 79 1012.6
20180622080510 63 0 1.0 5.0 0.00 0.01 0.00 79 1012.6
20180622080010 63 338 0.0 6.0 0.00 0.01 0.00 79 1012.6
20180622075510 63 353 2.0 6.0 0.00 0.03 0.00 78 1012.7
20180622075010 63 328 1.0 6.0 0.00 0.03 0.00 78 1012.7
20180622074509 63 337 2.0 6.0 0.00 0.04 0.00 78 1012.7
20180622074009 63 5 2.0 3.0 0.00 0.04 0.00 79 1012.7
20180622073509 63 17 2.0 3.0 0.00 0.04 0.00 79 1012.7
20180622073010 63 17 0.0 3.0 0.00 0.04 0.00 79 1012.7
20180622072509 63 5 1.0 6.0 0.00 0.04 0.00 79 1012.8
20180622072010 63 0 1.0 6.0 0.00 0.04 0.00 79 1012.8
20180622071509 63 5 2.0 6.0 0.00 0.04 0.00 79 1012.8
20180622071009 63 355 3.0 5.0 0.00 0.04 0.00 79 1012.7
20180622070509 63 17 2.0 3.0 0.00 0.04 0.00 79 1012.7
20180622070009 63 275 0.0 5.0 0.00 0.04 0.00 79 1012.5
20180622065509 63 348 1.0 5.0 0.00 0.04 0.00 80 1012.4
20180622065010 63 349 3.0 9.0 0.00 0.05 0.00 80 1012.3
20180622064509 63 9 2.0 9.0 0.00 0.05 0.00 80 1012.3
20180622064009 63 37 2.0 9.0 0.00 0.05 0.00 81 1012.3
20180622063509 63 0 2.0 9.0 0.00 0.05 0.00 82 1012.3
20180622063011 63 336 3.0 7.0 0.00 0.05 0.00 82 1012.2
20180622062509 63 0 2.0 10.0 0.00 0.05 0.00 84 1012.2
20180622062009 63 12 2.0 10.0 0.00 0.05 0.00 84 1012.2